TimeCDT,TemperatureF,Dew PointF,Humidity,Sea Level PressureIn,VisibilityMPH,Wind Direction,Wind SpeedMPH,Gust SpeedMPH,PrecipitationIn,Events,Conditions,WindDirDegrees,DateUTC
12:54 AM,62.1,51.1,67,29.83,10.0,South,9.2,-,N/A,,Clear,180,2013-05-14 05:54:00
1:54 AM,64.9,52.0,63,29.80,10.0,SSW,10.4,-,N/A,,Clear,200,2013-05-14 06:54:00
2:54 AM,66.0,53.1,63,29.78,10.0,SW,10.4,-,N/A,,Clear,220,2013-05-14 07:54:00
3:54 AM,64.0,53.1,67,29.78,10.0,SSW,8.1,-,N/A,,Clear,210,2013-05-14 08:54:00
4:54 AM,63.0,54.0,72,29.78,10.0,SW,9.2,-,N/A,,Partly Cloudy,230,2013-05-14 09:54:00
5:54 AM,62.1,54.0,75,29.78,10.0,SW,8.1,-,N/A,,Partly Cloudy,230,2013-05-14 10:54:00
6:54 AM,63.0,54.0,72,29.78,10.0,SW,5.8,-,N/A,,Partly Cloudy,220,2013-05-14 11:54:00
7:54 AM,68.0,55.9,65,29.78,10.0,SW,6.9,-,N/A,,Partly Cloudy,230,2013-05-14 12:54:00
8:54 AM,72.0,57.9,61,29.77,10.0,SW,5.8,-,N/A,,Partly Cloudy,220,2013-05-14 13:54:00
9:54 AM,77.0,60.1,56,29.76,10.0,SSW,5.8,-,N/A,,Partly Cloudy,210,2013-05-14 14:54:00
10:54 AM,81.0,62.1,52,29.75,10.0,South,9.2,-,N/A,,Partly Cloudy,180,2013-05-14 15:54:00
11:54 AM,86.0,62.1,44,29.73,10.0,South,9.2,-,N/A,,Partly Cloudy,190,2013-05-14 16:54:00
12:54 PM,91.0,61.0,36,29.70,10.0,South,15.0,-,N/A,,Partly Cloudy,190,2013-05-14 17:54:00
1:54 PM,93.0,61.0,34,29.68,10.0,South,19.6,-,N/A,,Mostly Cloudy,190,2013-05-14 18:54:00
2:54 PM,93.9,60.1,32,29.66,10.0,South,17.3,26.5,N/A,,Mostly Cloudy,190,2013-05-14 19:54:00
3:54 PM,93.0,60.1,33,29.65,10.0,SSW,18.4,26.5,N/A,,Mostly Cloudy,200,2013-05-14 20:54:00
4:54 PM,93.0,59.0,32,29.62,10.0,SSW,18.4,25.3,N/A,,Partly Cloudy,200,2013-05-14 21:54:00
5:54 PM,91.9,55.9,30,29.61,10.0,SSW,23.0,32.2,N/A,,Scattered Clouds,210,2013-05-14 22:54:00
6:54 PM,91.0,55.0,29,29.60,10.0,SSW,16.1,-,N/A,,Scattered Clouds,210,2013-05-14 23:54:00
7:54 PM,88.0,54.0,31,29.60,10.0,SSW,10.4,-,N/A,,Scattered Clouds,210,2013-05-15 00:54:00
8:54 PM,84.9,50.0,30,29.62,10.0,SW,11.5,-,N/A,,Mostly Cloudy,220,2013-05-15 01:54:00
9:54 PM,82.9,48.9,31,29.65,10.0,SW,13.8,-,N/A,,Partly Cloudy,230,2013-05-15 02:54:00
10:54 PM,82.9,50.0,32,29.70,10.0,West,13.8,24.2,N/A,,Clear,260,2013-05-15 03:54:00
11:54 PM,79.0,51.1,38,29.73,10.0,WSW,11.5,-,N/A,,Partly Cloudy,250,2013-05-15 04:54:00